Regional Weather Roundup
Issued by NWS Jackson, KY

Home | Current Version | Previous Version | Text Only | Print | Product List | Glossary Off
Versions: 1 2 3 4 5 6 7 8 9 10 11 12 13 14 15 16 17 18 19 20 21 22 23 24 25 26 27 28 29 30 31 32 33 34 35 36 37 38 39 40 41 42 43 44 45 46 47 48 49 50

399
ASUS43 KJKL 120010
RWRJKL

EAST KENTUCKY HOURLY WEATHER ROUNDUP
NATIONAL WEATHER SERVICE JACKSON KY
700 PM EST THU FEB 11 2016

NOTE: "FAIR" INDICATES FEW OR NO CLOUDS BELOW 12,000 FEET WITH
NO SIGNIFICANT WEATHER AND/OR OBSTRUCTIONS TO VISIBILITY.

* THESE REPORTS ARE NOT UNDER NWS QUALITY CONTROL AND MAY NOT
  REPORT WEATHER SUCH AS PRECIPITATION AND FOG.

KYZ079-080-083-085-087-088-110-112-115-119-120-120100
...EASTERN KENTUCKY...

CITY           SKY/WX    TMP DP  RH WIND       PRES   REMARKS
JACKSON        CLEAR     25   7  46 N6        30.24R WCI  18
6HR MIN TEMP:  25; 6HR MAX TEMP:  31;

LONDON         CLEAR     28   4  35 NW5       30.25R WCI  23
6HR MIN TEMP:  27; 6HR MAX TEMP:  33;

SOMERSET*      CLEAR     28  14  54 E3        30.28S
MONTICELLO*    CLEAR     27  21  78 N13       30.28R WCI  16
6HR MIN TEMP:  26; 6HR MAX TEMP:  35;

WILLIAMSBURG*  CLEAR     28  14  54 N6        30.25S WCI  22
MIDDLESBORO*   CLEAR     29  19  65 CALM      30.25R
6HR MIN TEMP:  29; 6HR MAX TEMP:  36;

HARLAN APT*      N/A     30  14  51 SW5       30.23R WCI  25
HAZARD APT*    CLEAR     25   1  36 CALM      30.25R
BLACK MTN*       N/A     14   7  73 S1          N/A
BIG SANDY*     CLEAR     25   7  46 CALM      30.26R
MOREHEAD APT*  CLEAR     23   9  54 N3        30.31R
$$

KYZ035-036-041-042-044-050-067-078-099-120100
...CENTRAL KENTUCKY...

CITY           SKY/WX    TMP DP  RH WIND       PRES   REMARKS
MT STERLING*   CLEAR     25  14  63 CALM      30.30S
DANVILLE*      CLEAR     23  16  74 N3        30.29S
RICHMOND*      CLEAR     25   9  50 N5        30.28R WCI  19
LEXINGTON      CLEAR     26  11  52 CALM      30.28S
6HR MIN TEMP:  23; 6HR MAX TEMP:  29;

FRANKFORT      CLEAR     24   9  52 W3        30.29R
6HR MIN TEMP:  24; 6HR MAX TEMP:  30;

$$

KYZ091>093-OHZ055-061-077-WVZ005-015-034-035-042-120100
...SOUTHERN OHIO/WEST VIRGINIA...

CITY           SKY/WX    TMP DP  RH WIND       PRES   REMARKS
COVINGTON      PTCLDY    22   6  50 CALM      30.29R
COLUMBUS       FLURRIES  19   6  57 CALM      30.29R
DAYTON         MOCLDY    18   8  65 N3        30.29R
WILMINGTON     CLOUDY    19   5  54 NW5       30.28R WCI  12
HUNTINGTON       N/A     23   5  46 N6        30.30R WCI  16
CHARLESTON       N/A     21   4  47 N5        30.29R WCI  15
PINEVILLE*       N/A     19   9  65 MISG      30.26R
BECKLEY          N/A     16   3  56 N7        30.16R WCI   6
$$

VAZ002-007-008-TNZ017-027-036-066-071-120100
...SOUTHWEST VIRGINIA/EAST TENNESSEE...

CITY           SKY/WX    TMP DP  RH WIND       PRES   REMARKS
BRISTOL        PTCLDY    30  16  56 W5        30.21R WCI  25
KNOXVILLE      PTCLDY    37  20  50 N5        30.22R WCI  33
OAK RIDGE      CLEAR     38  20  48 CALM      30.24R
CROSSVILLE     CLEAR     34  20  56 N5        30.19R WCI  30
NASHVILLE      PTCLDY    36  21  54 N9        30.27R WCI  29
$$

...KEY TO REMARKS...
VSB - VISIBILITY IN MILES
WCI - WIND CHILL INDEX
HX  - HEAT INDEX

$$




USA.gov is the U.S. government's official web portal to all federal, state and local government web resources and services.